SCP
0 0 0 0 0 0 0 0 0 0 0 0 0 0 0 0 0 0 0 0 0 0
0 0 0 0 0 0 0 0 0 0 0 0 0 0 0 0 0 0 0 0 0 0
0 0 0 0 0 0 0 0 0 0 0 0 0 0 0 0 0 0 0 0 0 0
0 0 0 0 0 0 0 0 0 0 0 0 0 0 0 0 0 0 0 0 0 0
0 0 0 0 0 0 0 0 0 0 0 0 0 0 0 0 0 0 0 0 0 0
0 0 0 0 0 0 0 0 0 0 0 0 0 0 0 0 0 0 0 0 0 0
0 0 0 0 0 0 0 0 0 0 0 0 0 0 0 0 0 0 0 0 0 0
0 0 0 0 0 0 0 0 0 0 0 0 0 0 0 0 0 0 0 0 0 0
0 0 0 0 0 0 0 0 0 0 0 0 0 0 0 0 0 0 0 0 0 0
0 0 0 0 0 0 0 0 0 0 0 0 0 0 0 0 0 0 0 0 0 0
0 0 0 0 0 0 0 0 0 0 0 0 0 0 0 0 0 0 0 0 0 0
0 0 0 0 0 0 0 0 0 0 0 0 0 0 0 0 0 0 0 -0 -0 -0
0 0 0 0 0 0 0 0 0 0 0 0 0 0 0 0 0 0 0 0 0 0
0 0 0 0 0 0 0 0 0 0 0 0 0 0 0 0 0 -0 -0 -0 -0 -0
Wind_Speed_500mb
36 38 38 40 42 41 40 39 41 39 31 37 39 40 40 39 43 46 47 45 47 52
29 36 40 40 39 40 39 36 36 35 35 33 35 39 39 40 36 27 29 38 43 46
24 27 30 29 28 26 22 21 21 22 22 22 22 23 25 27 29 34 37 42 42 44
21 19 16 13 11 8 6 4 7 10 14 16 19 22 25 29 35 36 40 39 47 50
23 22 19 15 11 8 7 8 12 18 24 29 31 33 36 37 40 45 47 48 51 53
24 21 17 12 10 11 14 16 18 20 23 26 32 36 36 38 39 39 42 43 45 50
21 18 17 16 15 15 17 19 19 19 21 24 27 27 31 33 37 40 39 40 40 42
17 14 12 11 12 8 10 13 14 15 20 22 28 33 37 38 38 43 46 46 43 45
18 12 7 4 6 10 12 13 15 17 19 23 26 30 36 41 42 45 50 51 50 51
15 12 8 6 7 10 12 12 14 17 20 23 28 33 39 44 48 51 53 57 61 63
18 13 12 13 10 12 15 18 20 23 27 29 34 40 45 49 50 53 57 62 65 67
17 14 14 13 9 16 22 25 26 27 29 33 35 39 44 50 55 60 64 67 71 73
15 14 16 17 15 18 21 22 19 18 20 24 30 33 39 46 53 58 64 70 73 75
18 17 17 18 17 16 17 16 17 20 24 31 36 41 45 48 50 57 64 72 78 79
Wind_Direction_500mb
227 222 226 228 233 235 232 235 238 238 233 239 246 252 251 254 265 270 268 270 278 283
221 225 226 229 230 234 239 241 243 246 249 251 255 259 265 267 270 276 292 297 294 293
219 221 227 225 228 230 230 241 250 257 264 272 278 284 282 280 281 281 277 274 282 289
199 196 195 194 196 200 213 253 278 282 281 284 287 287 286 287 286 283 280 279 273 270
166 165 166 168 175 191 223 258 281 292 296 295 295 293 292 293 292 291 288 287 285 285
176 178 185 198 224 249 265 278 289 294 294 298 298 298 300 304 308 310 308 307 305 300
193 202 214 224 235 253 274 290 300 307 313 314 313 314 311 316 325 327 328 325 323 321
211 221 236 262 274 287 303 308 322 331 333 332 328 330 329 330 331 328 329 330 330 325
214 210 216 250 334 315 313 324 328 328 326 326 323 319 320 322 327 328 326 325 323 321
211 216 226 254 280 301 303 302 304 313 319 324 322 321 321 321 323 322 319 317 317 316
215 225 238 244 258 294 308 314 317 321 324 326 327 328 331 329 328 327 325 324 323 320
216 227 244 264 284 304 313 314 317 324 329 331 337 339 337 333 331 330 329 327 325 323
223 242 261 278 287 293 302 305 314 325 329 330 330 333 331 331 329 328 327 327 325 323
224 244 266 278 286 294 300 305 320 336 338 340 340 341 340 341 336 332 328 327 326 324
Wind_Speed_850mb
36 38 38 40 42 41 40 39 41 39 31 37 39 40 40 39 43 46 47 45 47 52
29 36 40 40 39 40 39 36 36 35 35 33 35 39 39 40 36 27 29 38 43 46
24 27 30 29 28 26 22 21 21 22 22 22 22 23 25 27 29 34 37 42 42 44
21 19 16 13 11 8 6 4 7 10 14 16 19 22 25 29 35 36 40 39 47 50
23 22 19 15 11 8 7 8 12 18 24 29 31 33 36 37 40 45 47 48 51 53
24 21 17 12 10 11 14 16 18 20 23 26 32 36 36 38 39 39 42 43 45 50
21 18 17 16 15 15 17 19 19 19 21 24 27 27 31 33 37 40 39 40 40 42
17 14 12 11 12 8 10 13 14 15 20 22 28 33 37 38 38 43 46 46 43 45
18 12 7 4 6 10 12 13 15 17 19 23 26 30 36 41 42 45 50 51 50 51
15 12 8 6 7 10 12 12 14 17 20 23 28 33 39 44 48 51 53 57 61 63
18 13 12 13 10 12 15 18 20 23 27 29 34 40 45 49 50 53 57 62 65 67
17 14 14 13 9 16 22 25 26 27 29 33 35 39 44 50 55 60 64 67 71 73
15 14 16 17 15 18 21 22 19 18 20 24 30 33 39 46 53 58 64 70 73 75
18 17 17 18 17 16 17 16 17 20 24 31 36 41 45 48 50 57 64 72 78 79
Wind_Direction_850mb
227 222 226 228 233 235 232 235 238 238 233 239 246 252 251 254 265 270 268 270 278 283
221 225 226 229 230 234 239 241 243 246 249 251 255 259 265 267 270 276 292 297 294 293
219 221 227 225 228 230 230 241 250 257 264 272 278 284 282 280 281 281 277 274 282 289
199 196 195 194 196 200 213 253 278 282 281 284 287 287 286 287 286 283 280 279 273 270
166 165 166 168 175 191 223 258 281 292 296 295 295 293 292 293 292 291 288 287 285 285
176 178 185 198 224 249 265 278 289 294 294 298 298 298 300 304 308 310 308 307 305 300
193 202 214 224 235 253 274 290 300 307 313 314 313 314 311 316 325 327 328 325 323 321
211 221 236 262 274 287 303 308 322 331 333 332 328 330 329 330 331 328 329 330 330 325
214 210 216 250 334 315 313 324 328 328 326 326 323 319 320 322 327 328 326 325 323 321
211 216 226 254 280 301 303 302 304 313 319 324 322 321 321 321 323 322 319 317 317 316
215 225 238 244 258 294 308 314 317 321 324 326 327 328 331 329 328 327 325 324 323 320
216 227 244 264 284 304 313 314 317 324 329 331 337 339 337 333 331 330 329 327 325 323
223 242 261 278 287 293 302 305 314 325 329 330 330 333 331 331 329 328 327 327 325 323
224 244 266 278 286 294 300 305 320 336 338 340 340 341 340 341 336 332 328 327 326 324